SL-12 R/B(AUX MOTOR), 29682

Orbit data source: Space-Track

SL-12 R/B(AUX MOTOR), 29682 is space debris in HEO originally from a launch on Mon, 25 Dec 2006 UTC launched from the Tyuratam Missile And Space Complex (TTMTR). Debris objects in space refer to the collection of defunct objects orbiting the Earth. Examples of debris include non-operational satellites, rocket bodies, and fragments generated from explosions, collisions, or faulty payload assembly.

Loading next visibility...
Identifier
29682, 2006-062H
Orbit
HEO
Last TLE update
3 days ago
Origin
Manufacturer
RKKE
Mission
Spacecraft
Bus & Motor
SOZ, Unknown motor
Mass
56 kg wet, 56 kg dry
Launch date (UTC)
2006-12-25 (19 years ago)
Launch vehicle
Unknown
Launch site
Tyuratam Missile And Space Complex (TTMTR)
Object type
Payload
Rocket body
Debris
Shape & HBR
Cyl, 1.1 m
Radar Cross Section
0.660 m², Medium (>0.1 m² and < 1m²)

Expand to show TLE details & history

TLE from 3 days ago
0 SL-12 R/B(AUX MOTOR)
1 29682U 06062H   25181.23298884  .00000069  00000-0  53921-4 0  9991
2 29682  65.1710 141.2080 5551988 269.4661  30.1760  4.25379863286606
Epoch: 2025-06-30T05:35Z
TLE epoch observation values (Epoch: 2025-06-30T05:35:30.235Z)
Latitude
-0.00005°
Longitude
138.7827°
Altitude
4,823.4 km
Speed
6.812 km/s
True Right ascension
09h 24m 49s
True Declination
0° 00' 00"
Sunlit
Object was in daylight at epoch
Visualization orbit readout
Latitude
56.66464°
Longitude
-177.51365°
Altitude
16,501.387 km
Speed
3.176 km/s
Apparent Right ascension
13h 48m 10s
Apparent Declination
55° 15' 17"
Sunlit
Object is in daylight
Visualization observer readout
Local Sidereal Time
08:46:36
Azimuth
45.711° ENE
Elevation
39.607°
Doppler factor
1
Orbital elements
Apogee altitude
18,642.968 km
Perigee altitude
778.13 km
Semi-major axis
16,088.686 km
Eccentricity
0.5552
Inclination
65.171°
RAAN
141.208°
Arg. of periapsis
269.4661°
True anomaly
Unknown
Mean anomaly
30.176°
Eccentric anomaly
Unknown
Mean motion
1.06356 °/min
Orbital period
338.49 mins
BSTAR
0.000053921
Loading maneuver chart data...
Loading SW <> Apogee altitude chart data...
Loading historical data...
Loading historical data...
Loading historical data...
Loading historical data...
Loading historical data...
Loading historical data...
Loading historical data...

SL-12 R/B(AUX MOTOR) Visibility forecast

Observer location: undefined°, undefined°

Span
Click to sort rows by Start time (UTC) header in descending order
Start Az.
Max El. time (UTC)
Max El. Az.
Max El.
End time (UTC)
End Az.
104 mins2025-07-02 21:02:28.492Z45.741° ENE2025-07-02 21:02:28.492Z45.741° ENE32.52°2025-07-02 22:46:28.492Z31.521° NE
261 mins2025-07-03 01:29:28.492Z256.496° W2025-07-03 03:59:28.492Z10.598° NNE39.917°2025-07-03 05:50:28.492Z106.462° ESE
179 mins2025-07-03 08:37:28.492Z329.377° NNW2025-07-03 10:50:28.492Z292.271° WNW33.757°2025-07-03 11:36:28.492Z227.296° WSW
150 mins2025-07-03 18:27:28.492Z97.485° ESE2025-07-03 19:18:28.492Z53.209° ENE24.735°2025-07-03 20:57:28.492Z25.573° NE
|